contact:dominique.lefevre@mio.osupytheas.fr, maurice.libes@osupytheas.fr, didier.mallarino@osupytheas.fr
Project:EMSO http://www.emso-fr.org/EMSO-France
Depth: 2436.0 m
Title:EMSO Ligure Ouest : Data MII capteur MICROCAT
DateTime_Computer,Latitude,Longitude,Temperature,Conductivity,Pressure,DateTime_Instrument
DateTime_Computer,Latitude,Longitude,degC,S m-1,dbar,DateTime_Instrument
2022-11-13T00:00:35Z,42.805,6.029,13.3037,4.60081,2470.661,2022-11-13T02:02:33Z
2022-11-13T00:03:38Z,42.805,6.029,13.3039,4.60075,2470.646,2022-11-13T02:05:36Z
2022-11-13T00:06:41Z,42.805,6.029,13.3034,4.60076,2470.646,2022-11-13T02:08:39Z
2022-11-13T00:09:44Z,42.805,6.029,13.3033,4.60080,2470.646,2022-11-13T02:11:42Z
2022-11-13T00:12:47Z,42.805,6.029,13.3039,4.60077,2470.684,2022-11-13T02:14:45Z
2022-11-13T00:15:51Z,42.805,6.029,13.3030,4.60078,2470.646,2022-11-13T02:17:49Z
2022-11-13T00:18:54Z,42.805,6.029,13.3031,4.60083,2470.646,2022-11-13T02:20:52Z
2022-11-13T00:21:57Z,42.805,6.029,13.3025,4.60073,2470.624,2022-11-13T02:23:55Z
2022-11-13T00:25:00Z,42.805,6.029,13.3028,4.60082,2470.624,2022-11-13T02:26:58Z
2022-11-13T00:28:03Z,42.805,6.029,13.3034,4.60079,2470.61,2022-11-13T02:30:01Z
2022-11-13T00:31:06Z,42.805,6.029,13.3039,4.60074,2470.67,2022-11-13T02:33:04Z
2022-11-13T00:34:09Z,42.805,6.029,13.3039,4.60078,2470.637,2022-11-13T02:36:07Z
2022-11-13T00:37:12Z,42.805,6.029,13.3036,4.60073,2470.646,2022-11-13T02:39:10Z
2022-11-13T00:40:15Z,42.805,6.029,13.3031,4.60074,2470.661,2022-11-13T02:42:13Z
2022-11-13T00:43:18Z,42.805,6.029,13.3032,4.60081,2470.637,2022-11-13T02:45:16Z
2022-11-13T00:46:21Z,42.805,6.029,13.3031,4.60085,2470.67,2022-11-13T02:48:19Z
2022-11-13T00:49:24Z,42.805,6.029,13.3036,4.60084,2470.646,2022-11-13T02:51:22Z
2022-11-13T00:52:27Z,42.805,6.029,13.3040,4.60079,2470.624,2022-11-13T02:54:25Z
2022-11-13T00:55:31Z,42.805,6.029,13.3033,4.60070,2470.646,2022-11-13T02:57:29Z
2022-11-13T00:58:34Z,42.805,6.029,13.3031,4.60076,2470.6,2022-11-13T03:00:32Z
2022-11-13T01:01:37Z,42.805,6.029,13.3039,4.60074,2470.661,2022-11-13T03:03:35Z
2022-11-13T01:04:40Z,42.805,6.029,13.3036,4.60078,2470.624,2022-11-13T03:06:38Z
2022-11-13T01:07:43Z,42.805,6.029,13.3029,4.60077,2470.624,2022-11-13T03:09:41Z
2022-11-13T01:10:46Z,42.805,6.029,13.3039,4.60075,2470.637,2022-11-13T03:12:44Z
2022-11-13T01:13:49Z,42.805,6.029,13.3031,4.60068,2470.624,2022-11-13T03:15:47Z
2022-11-13T01:16:52Z,42.805,6.029,13.3036,4.60072,2470.6,2022-11-13T03:18:50Z
2022-11-13T01:19:55Z,42.805,6.029,13.3036,4.60064,2470.624,2022-11-13T03:21:53Z
2022-11-13T01:22:58Z,42.805,6.029,13.3033,4.60082,2470.624,2022-11-13T03:24:56Z
2022-11-13T01:26:01Z,42.805,6.029,13.3039,4.60074,2470.6,2022-11-13T03:27:59Z
2022-11-13T01:29:04Z,42.805,6.029,13.3027,4.60074,2470.624,2022-11-13T03:31:02Z
2022-11-13T01:32:08Z,42.805,6.029,13.3023,4.60071,2470.661,2022-11-13T03:34:05Z
2022-11-13T01:35:11Z,42.805,6.029,13.3029,4.60072,2470.637,2022-11-13T03:37:09Z
2022-11-13T01:38:14Z,42.805,6.029,13.3034,4.60075,2470.637,2022-11-13T03:40:12Z
2022-11-13T01:41:17Z,42.805,6.029,13.3037,4.60074,2470.6,2022-11-13T03:43:15Z
2022-11-13T01:44:20Z,42.805,6.029,13.3035,4.60087,2470.624,2022-11-13T03:46:18Z
2022-11-13T01:47:23Z,42.805,6.029,13.3036,4.60077,2470.624,2022-11-13T03:49:21Z
2022-11-13T01:50:26Z,42.805,6.029,13.3036,4.60072,2470.646,2022-11-13T03:52:24Z
2022-11-13T01:53:29Z,42.805,6.029,13.3038,4.60073,2470.646,2022-11-13T03:55:27Z
2022-11-13T01:56:32Z,42.805,6.029,13.3036,4.60077,2470.614,2022-11-13T03:58:30Z
2022-11-13T01:59:35Z,42.805,6.029,13.3025,4.60075,2470.624,2022-11-13T04:01:33Z
2022-11-13T02:02:38Z,42.805,6.029,13.3034,4.60076,2470.6,2022-11-13T04:04:36Z
2022-11-13T02:05:41Z,42.805,6.029,13.3038,4.60078,2470.637,2022-11-13T04:07:39Z
2022-11-13T02:08:44Z,42.805,6.029,13.3030,4.60084,2470.6,2022-11-13T04:10:42Z
2022-11-13T02:11:48Z,42.805,6.029,13.3037,4.60072,2470.6,2022-11-13T04:13:46Z
2022-11-13T02:14:51Z,42.805,6.029,13.3029,4.60078,2470.6,2022-11-13T04:16:49Z
2022-11-13T02:17:54Z,42.805,6.029,13.3030,4.60073,2470.624,2022-11-13T04:19:52Z
2022-11-13T02:20:57Z,42.805,6.029,13.3039,4.60107,2470.624,2022-11-13T04:22:55Z
2022-11-13T02:24:00Z,42.805,6.029,13.3039,4.60080,2470.624,2022-11-13T04:25:58Z
2022-11-13T02:27:03Z,42.805,6.029,13.3034,4.60071,2470.6,2022-11-13T04:29:01Z
2022-11-13T02:30:06Z,42.805,6.029,13.3036,4.60077,2470.6,2022-11-13T04:32:04Z
2022-11-13T02:33:09Z,42.805,6.029,13.3035,4.60079,2470.637,2022-11-13T04:35:07Z
2022-11-13T02:36:12Z,42.805,6.029,13.3037,4.60070,2470.624,2022-11-13T04:38:10Z
2022-11-13T02:39:15Z,42.805,6.029,13.3042,4.60082,2470.624,2022-11-13T04:41:13Z
2022-11-13T02:42:18Z,42.805,6.029,13.3031,4.60077,2470.637,2022-11-13T04:44:16Z
2022-11-13T02:45:21Z,42.805,6.029,13.3029,4.60082,2470.6,2022-11-13T04:47:19Z
2022-11-13T02:48:24Z,42.805,6.029,13.3026,4.60068,2470.624,2022-11-13T04:50:22Z
2022-11-13T02:51:28Z,42.805,6.029,13.3035,4.60072,2470.624,2022-11-13T04:53:26Z
2022-11-13T02:54:31Z,42.805,6.029,13.3031,4.60067,2470.624,2022-11-13T04:56:29Z
2022-11-13T02:57:34Z,42.805,6.029,13.3029,4.60070,2470.591,2022-11-13T04:59:32Z
2022-11-13T03:00:37Z,42.805,6.029,13.3031,4.60072,2470.6,2022-11-13T05:02:35Z
2022-11-13T03:03:40Z,42.805,6.029,13.3029,4.60070,2470.6,2022-11-13T05:05:38Z
2022-11-13T03:06:43Z,42.805,6.029,13.3029,4.60069,2470.624,2022-11-13T05:08:41Z
2022-11-13T03:09:46Z,42.805,6.029,13.3029,4.60075,2470.6,2022-11-13T05:11:44Z
2022-11-13T03:12:49Z,42.805,6.029,13.3030,4.60072,2470.614,2022-11-13T05:14:47Z
2022-11-13T03:15:52Z,42.805,6.029,13.3031,4.60067,2470.6,2022-11-13T05:17:50Z
2022-11-13T03:18:55Z,42.805,6.029,13.3028,4.60081,2470.614,2022-11-13T05:20:53Z
2022-11-13T03:21:58Z,42.805,6.029,13.3029,4.60067,2470.591,2022-11-13T05:23:56Z
2022-11-13T03:25:01Z,42.805,6.029,13.3032,4.60069,2470.624,2022-11-13T05:26:59Z
2022-11-13T03:28:05Z,42.805,6.029,13.3027,4.60074,2470.628,2022-11-13T05:30:02Z
2022-11-13T03:31:08Z,42.805,6.029,13.3027,4.60067,2470.614,2022-11-13T05:33:06Z
2022-11-13T03:34:11Z,42.805,6.029,13.3031,4.60083,2470.637,2022-11-13T05:36:09Z
2022-11-13T03:37:14Z,42.805,6.029,13.3036,4.60068,2470.624,2022-11-13T05:39:12Z
2022-11-13T03:40:17Z,42.805,6.029,13.3031,4.60066,2470.577,2022-11-13T05:42:15Z
2022-11-13T03:43:20Z,42.805,6.029,13.3033,4.60072,2470.6,2022-11-13T05:45:18Z
2022-11-13T03:46:23Z,42.805,6.029,13.3029,4.60075,2470.614,2022-11-13T05:48:21Z
2022-11-13T03:49:26Z,42.805,6.029,13.3028,4.60070,2470.646,2022-11-13T05:51:24Z
2022-11-13T03:52:29Z,42.805,6.029,13.3021,4.60073,2470.6,2022-11-13T05:54:27Z
2022-11-13T03:55:32Z,42.805,6.029,13.3031,4.60079,2470.6,2022-11-13T05:57:30Z
2022-11-13T03:58:35Z,42.805,6.029,13.3030,4.60080,2470.614,2022-11-13T06:00:33Z
2022-11-13T04:01:38Z,42.805,6.029,13.3024,4.60076,2470.577,2022-11-13T06:03:36Z
2022-11-13T04:04:41Z,42.805,6.029,13.3030,4.60084,2470.637,2022-11-13T06:06:39Z
2022-11-13T04:07:44Z,42.805,6.029,13.3029,4.60072,2470.661,2022-11-13T06:09:42Z
2022-11-13T04:10:48Z,42.805,6.029,13.3029,4.60074,2470.637,2022-11-13T06:12:46Z
2022-11-13T04:13:51Z,42.805,6.029,13.3034,4.60079,2470.646,2022-11-13T06:15:49Z
2022-11-13T04:16:54Z,42.805,6.029,13.3034,4.60075,2470.6,2022-11-13T06:18:52Z
2022-11-13T04:19:57Z,42.805,6.029,13.3037,4.60076,2470.624,2022-11-13T06:21:55Z
2022-11-13T04:23:00Z,42.805,6.029,13.3028,4.60073,2470.637,2022-11-13T06:24:58Z
2022-11-13T04:26:03Z,42.805,6.029,13.3029,4.60072,2470.624,2022-11-13T06:28:01Z
2022-11-13T04:29:06Z,42.805,6.029,13.3024,4.60090,2470.637,2022-11-13T06:31:04Z
2022-11-13T04:32:09Z,42.805,6.029,13.3026,4.60074,2470.6,2022-11-13T06:34:07Z
2022-11-13T04:35:12Z,42.805,6.029,13.3032,4.60080,2470.637,2022-11-13T06:37:10Z
2022-11-13T04:38:15Z,42.805,6.029,13.3029,4.60080,2470.624,2022-11-13T06:40:13Z
2022-11-13T04:41:18Z,42.805,6.029,13.3027,4.60079,2470.6,2022-11-13T06:43:16Z
2022-11-13T04:44:21Z,42.805,6.029,13.3041,4.60074,2470.624,2022-11-13T06:46:19Z
2022-11-13T04:47:25Z,42.805,6.029,13.3036,4.60072,2470.614,2022-11-13T06:49:22Z
2022-11-13T04:50:28Z,42.805,6.029,13.3035,4.60076,2470.6,2022-11-13T06:52:26Z
2022-11-13T04:53:31Z,42.805,6.029,13.3030,4.60072,2470.637,2022-11-13T06:55:29Z
2022-11-13T04:56:34Z,42.805,6.029,13.3036,4.60077,2470.6,2022-11-13T06:58:32Z
2022-11-13T04:59:37Z,42.805,6.029,13.3032,4.60073,2470.646,2022-11-13T07:01:35Z
2022-11-13T05:02:40Z,42.805,6.029,13.3030,4.60074,2470.624,2022-11-13T07:04:38Z
2022-11-13T05:05:43Z,42.805,6.029,13.3031,4.60081,2470.661,2022-11-13T07:07:41Z
2022-11-13T05:08:46Z,42.805,6.029,13.3039,4.60084,2470.637,2022-11-13T07:10:44Z
2022-11-13T05:11:49Z,42.805,6.029,13.3040,4.60079,2470.614,2022-11-13T07:13:47Z
2022-11-13T05:14:52Z,42.805,6.029,13.3034,4.60086,2470.614,2022-11-13T07:16:50Z
2022-11-13T05:17:55Z,42.805,6.029,13.3041,4.60073,2470.624,2022-11-13T07:19:53Z
2022-11-13T05:20:58Z,42.805,6.029,13.3042,4.60087,2470.624,2022-11-13T07:22:56Z
2022-11-13T05:24:01Z,42.805,6.029,13.3032,4.60074,2470.661,2022-11-13T07:25:59Z
2022-11-13T05:27:05Z,42.805,6.029,13.3026,4.60068,2470.637,2022-11-13T07:29:03Z
2022-11-13T05:30:08Z,42.805,6.029,13.3028,4.60069,2470.661,2022-11-13T07:32:06Z
2022-11-13T05:33:11Z,42.805,6.029,13.3024,4.60072,2470.661,2022-11-13T07:35:09Z
2022-11-13T05:36:14Z,42.805,6.029,13.3021,4.60085,2470.661,2022-11-13T07:38:12Z
2022-11-13T05:39:17Z,42.805,6.029,13.3038,4.60074,2470.646,2022-11-13T07:41:15Z
2022-11-13T05:42:20Z,42.805,6.029,13.3026,4.60084,2470.646,2022-11-13T07:44:18Z
2022-11-13T05:45:23Z,42.805,6.029,13.3028,4.60085,2470.6,2022-11-13T07:47:21Z
2022-11-13T05:48:26Z,42.805,6.029,13.3031,4.60077,2470.67,2022-11-13T07:50:24Z
2022-11-13T05:51:29Z,42.805,6.029,13.3047,4.60072,2470.646,2022-11-13T07:53:27Z
2022-11-13T05:54:32Z,42.805,6.029,13.3029,4.60075,2470.624,2022-11-13T07:56:30Z
2022-11-13T05:57:35Z,42.805,6.029,13.3039,4.60067,2470.646,2022-11-13T07:59:33Z
2022-11-13T06:00:38Z,42.805,6.029,13.3046,4.60081,2470.67,2022-11-13T08:02:36Z
2022-11-13T06:03:41Z,42.805,6.029,13.3026,4.60084,2470.661,2022-11-13T08:05:39Z
2022-11-13T06:06:45Z,42.805,6.029,13.3031,4.60067,2470.684,2022-11-13T08:08:43Z
2022-11-13T06:09:48Z,42.805,6.029,13.3033,4.60099,2470.661,2022-11-13T08:11:46Z
2022-11-13T06:12:51Z,42.805,6.029,13.3035,4.60088,2470.67,2022-11-13T08:14:49Z
2022-11-13T06:15:54Z,42.805,6.029,13.3033,4.60069,2470.646,2022-11-13T08:17:52Z
2022-11-13T06:18:57Z,42.805,6.029,13.3040,4.60084,2470.661,2022-11-13T08:20:55Z
2022-11-13T06:22:00Z,42.805,6.029,13.3023,4.60079,2470.661,2022-11-13T08:23:58Z
2022-11-13T06:25:03Z,42.805,6.029,13.3021,4.60084,2470.693,2022-11-13T08:27:01Z
2022-11-13T06:28:06Z,42.805,6.029,13.3023,4.60086,2470.646,2022-11-13T08:30:04Z
2022-11-13T06:31:09Z,42.805,6.029,13.3022,4.60084,2470.67,2022-11-13T08:33:07Z
2022-11-13T06:34:12Z,42.805,6.029,13.3025,4.60086,2470.646,2022-11-13T08:36:10Z
2022-11-13T06:37:15Z,42.805,6.029,13.3023,4.60096,2470.67,2022-11-13T08:39:13Z
2022-11-13T06:40:18Z,42.805,6.029,13.3023,4.60087,2470.67,2022-11-13T08:42:16Z
2022-11-13T06:43:21Z,42.805,6.029,13.3026,4.60072,2470.73,2022-11-13T08:45:19Z
2022-11-13T06:46:25Z,42.805,6.029,13.3037,4.60084,2470.693,2022-11-13T08:48:23Z
2022-11-13T06:49:28Z,42.805,6.029,13.3031,4.60070,2470.707,2022-11-13T08:51:26Z
2022-11-13T06:52:31Z,42.805,6.029,13.3035,4.60082,2470.707,2022-11-13T08:54:29Z
2022-11-13T06:55:34Z,42.805,6.029,13.3021,4.60073,2470.707,2022-11-13T08:57:32Z
2022-11-13T06:58:37Z,42.805,6.029,13.3024,4.60081,2470.717,2022-11-13T09:00:35Z
2022-11-13T07:01:40Z,42.805,6.029,13.3029,4.60091,2470.73,2022-11-13T09:03:38Z
2022-11-13T07:04:43Z,42.805,6.029,13.3029,4.60074,2470.717,2022-11-13T09:06:41Z
2022-11-13T07:07:46Z,42.805,6.029,13.3022,4.60077,2470.73,2022-11-13T09:09:44Z
2022-11-13T07:10:49Z,42.805,6.029,13.3031,4.60080,2470.763,2022-11-13T09:12:47Z
2022-11-13T07:13:52Z,42.805,6.029,13.3039,4.60089,2470.73,2022-11-13T09:15:50Z
2022-11-13T07:16:55Z,42.805,6.029,13.3038,4.60083,2470.717,2022-11-13T09:18:53Z
2022-11-13T07:19:58Z,42.805,6.029,13.3025,4.60080,2470.717,2022-11-13T09:21:56Z
2022-11-13T07:23:01Z,42.805,6.029,13.3029,4.60068,2470.763,2022-11-13T09:24:59Z
2022-11-13T07:26:05Z,42.805,6.029,13.3030,4.60092,2470.717,2022-11-13T09:28:03Z
2022-11-13T07:29:08Z,42.805,6.029,13.3031,4.60075,2470.763,2022-11-13T09:31:06Z
2022-11-13T07:32:11Z,42.805,6.029,13.3039,4.60087,2470.754,2022-11-13T09:34:09Z
2022-11-13T07:35:14Z,42.805,6.029,13.3041,4.60084,2470.717,2022-11-13T09:37:12Z
2022-11-13T07:38:17Z,42.805,6.029,13.3048,4.60092,2470.754,2022-11-13T09:40:15Z
2022-11-13T07:41:20Z,42.805,6.029,13.3041,4.60072,2470.777,2022-11-13T09:43:18Z
2022-11-13T07:44:23Z,42.805,6.029,13.3036,4.60067,2470.777,2022-11-13T09:46:21Z
2022-11-13T07:47:26Z,42.805,6.029,13.3043,4.60082,2470.763,2022-11-13T09:49:24Z
2022-11-13T07:50:29Z,42.805,6.029,13.3039,4.60089,2470.754,2022-11-13T09:52:27Z
2022-11-13T07:53:32Z,42.805,6.029,13.3038,4.60064,2470.787,2022-11-13T09:55:30Z
2022-11-13T07:56:35Z,42.805,6.029,13.3024,4.60068,2470.8,2022-11-13T09:58:33Z
2022-11-13T07:59:38Z,42.805,6.029,13.3033,4.60089,2470.763,2022-11-13T10:01:36Z
2022-11-13T08:02:42Z,42.805,6.029,13.3027,4.60088,2470.74,2022-11-13T10:04:40Z
2022-11-13T08:05:45Z,42.805,6.029,13.3048,4.60095,2470.777,2022-11-13T10:07:43Z
2022-11-13T08:08:48Z,42.805,6.029,13.3041,4.60069,2470.777,2022-11-13T10:10:46Z
2022-11-13T08:11:51Z,42.805,6.029,13.3039,4.60073,2470.787,2022-11-13T10:13:49Z
2022-11-13T08:14:54Z,42.805,6.029,13.3043,4.60085,2470.777,2022-11-13T10:16:52Z
2022-11-13T08:17:57Z,42.805,6.029,13.3029,4.60085,2470.787,2022-11-13T10:19:55Z
2022-11-13T08:21:00Z,42.805,6.029,13.3048,4.60079,2470.763,2022-11-13T10:22:58Z
2022-11-13T08:24:03Z,42.805,6.029,13.3019,4.60085,2470.8,2022-11-13T10:26:01Z
2022-11-13T08:27:06Z,42.805,6.029,13.3027,4.60087,2470.81,2022-11-13T10:29:04Z
2022-11-13T08:30:09Z,42.805,6.029,13.3036,4.60078,2470.8,2022-11-13T10:32:07Z
2022-11-13T08:33:12Z,42.805,6.029,13.3028,4.60072,2470.824,2022-11-13T10:35:10Z
2022-11-13T08:36:15Z,42.805,6.029,13.3031,4.60091,2470.777,2022-11-13T10:38:13Z
2022-11-13T08:39:18Z,42.805,6.029,13.3039,4.60084,2470.763,2022-11-13T10:41:16Z
2022-11-13T08:42:22Z,42.805,6.029,13.3041,4.60108,2470.81,2022-11-13T10:44:20Z
2022-11-13T08:45:25Z,42.805,6.029,13.3017,4.60081,2470.8,2022-11-13T10:47:23Z
2022-11-13T08:48:28Z,42.805,6.029,13.3036,4.60108,2470.847,2022-11-13T10:50:26Z
2022-11-13T08:51:31Z,42.805,6.029,13.3040,4.60093,2470.824,2022-11-13T10:53:29Z
2022-11-13T08:54:34Z,42.805,6.029,13.3019,4.60067,2470.8,2022-11-13T10:56:32Z
2022-11-13T08:57:37Z,42.805,6.029,13.3034,4.60102,2470.824,2022-11-13T10:59:35Z
2022-11-13T09:00:40Z,42.805,6.029,13.3039,4.60087,2470.81,2022-11-13T11:02:38Z
2022-11-13T09:03:43Z,42.805,6.029,13.3053,4.60114,2470.763,2022-11-13T11:05:41Z
2022-11-13T09:06:46Z,42.805,6.029,13.3049,4.60075,2470.847,2022-11-13T11:08:44Z
2022-11-13T09:09:49Z,42.805,6.029,13.3050,4.60079,2470.824,2022-11-13T11:11:47Z
2022-11-13T09:12:52Z,42.805,6.029,13.3036,4.60097,2470.81,2022-11-13T11:14:50Z
2022-11-13T09:15:56Z,42.805,6.029,13.3023,4.60099,2470.838,2022-11-13T11:17:53Z
2022-11-13T09:18:59Z,42.805,6.029,13.3039,4.60082,2470.847,2022-11-13T11:20:57Z
2022-11-13T09:22:02Z,42.805,6.029,13.3046,4.60113,2470.833,2022-11-13T11:24:00Z
2022-11-13T09:25:05Z,42.805,6.029,13.3038,4.60096,2470.857,2022-11-13T11:27:03Z
2022-11-13T09:28:08Z,42.805,6.029,13.3043,4.60091,2470.833,2022-11-13T11:30:06Z
2022-11-13T09:31:11Z,42.805,6.029,13.3043,4.60089,2470.81,2022-11-13T11:33:09Z
2022-11-13T09:34:14Z,42.805,6.029,13.3055,4.60096,2470.824,2022-11-13T11:36:12Z
2022-11-13T09:37:17Z,42.805,6.029,13.3046,4.60089,2470.824,2022-11-13T11:39:15Z
2022-11-13T09:40:20Z,42.805,6.029,13.3043,4.60110,2470.763,2022-11-13T11:42:18Z
2022-11-13T09:43:23Z,42.805,6.029,13.3047,4.60110,2470.833,2022-11-13T11:45:21Z
2022-11-13T09:46:26Z,42.805,6.029,13.3052,4.60106,2470.824,2022-11-13T11:48:24Z
2022-11-13T09:49:29Z,42.805,6.029,13.3058,4.60094,2470.824,2022-11-13T11:51:27Z
2022-11-13T09:52:32Z,42.805,6.029,13.3041,4.60125,2470.8,2022-11-13T11:54:30Z
2022-11-13T09:55:36Z,42.805,6.029,13.3056,4.60097,2470.847,2022-11-13T11:57:34Z
2022-11-13T09:58:39Z,42.805,6.029,13.3052,4.60074,2470.81,2022-11-13T12:00:37Z
2022-11-13T10:01:42Z,42.805,6.029,13.3034,4.60093,2470.847,2022-11-13T12:03:40Z
2022-11-13T10:04:45Z,42.805,6.029,13.3031,4.60092,2470.824,2022-11-13T12:06:43Z
2022-11-13T10:07:48Z,42.805,6.029,13.3024,4.60099,2470.81,2022-11-13T12:09:46Z
2022-11-13T10:10:51Z,42.805,6.029,13.3039,4.60079,2470.81,2022-11-13T12:12:49Z
2022-11-13T10:13:54Z,42.805,6.029,13.3043,4.60067,2470.847,2022-11-13T12:15:52Z
2022-11-13T10:16:57Z,42.805,6.029,13.3031,4.60113,2470.787,2022-11-13T12:18:55Z
2022-11-13T10:20:00Z,42.805,6.029,13.3048,4.60109,2470.857,2022-11-13T12:21:58Z
2022-11-13T10:23:03Z,42.805,6.029,13.3051,4.60087,2470.787,2022-11-13T12:25:01Z
2022-11-13T10:26:06Z,42.805,6.029,13.3057,4.60135,2470.763,2022-11-13T12:28:04Z
2022-11-13T10:29:09Z,42.805,6.029,13.3031,4.60099,2470.847,2022-11-13T12:31:07Z
2022-11-13T10:32:13Z,42.805,6.029,13.3039,4.60101,2470.787,2022-11-13T12:34:11Z
2022-11-13T10:35:16Z,42.805,6.029,13.3039,4.60084,2470.833,2022-11-13T12:37:14Z
2022-11-13T10:38:19Z,42.805,6.029,13.3038,4.60080,2470.833,2022-11-13T12:40:17Z
2022-11-13T10:41:22Z,42.805,6.029,13.3031,4.60097,2470.847,2022-11-13T12:43:20Z
2022-11-13T10:44:25Z,42.805,6.029,13.3026,4.60106,2470.81,2022-11-13T12:46:23Z
2022-11-13T10:47:28Z,42.805,6.029,13.3042,4.60079,2470.824,2022-11-13T12:49:26Z
2022-11-13T10:50:31Z,42.805,6.029,13.3034,4.60078,2470.8,2022-11-13T12:52:29Z
2022-11-13T10:53:34Z,42.805,6.029,13.3024,4.60081,2470.824,2022-11-13T12:55:32Z
2022-11-13T10:56:37Z,42.805,6.029,13.3023,4.60071,2470.833,2022-11-13T12:58:35Z
2022-11-13T10:59:40Z,42.805,6.029,13.3027,4.60074,2470.81,2022-11-13T13:01:38Z
2022-11-13T11:02:43Z,42.805,6.029,13.3031,4.60079,2470.824,2022-11-13T13:04:41Z
2022-11-13T11:05:46Z,42.805,6.029,13.3039,4.60091,2470.787,2022-11-13T13:07:44Z
2022-11-13T11:08:50Z,42.805,6.029,13.3034,4.60087,2470.824,2022-11-13T13:10:48Z
2022-11-13T11:11:53Z,42.805,6.029,13.3040,4.60116,2470.8,2022-11-13T13:13:51Z
2022-11-13T11:14:56Z,42.805,6.029,13.3047,4.60121,2470.787,2022-11-13T13:16:54Z
2022-11-13T11:17:59Z,42.805,6.029,13.3027,4.60078,2470.824,2022-11-13T13:19:57Z
2022-11-13T11:21:02Z,42.805,6.029,13.3028,4.60079,2470.824,2022-11-13T13:23:00Z
2022-11-13T11:24:05Z,42.805,6.029,13.3048,4.60081,2470.81,2022-11-13T13:26:03Z
2022-11-13T11:27:08Z,42.805,6.029,13.3037,4.60105,2470.777,2022-11-13T13:29:06Z
2022-11-13T11:30:11Z,42.805,6.029,13.3027,4.60095,2470.833,2022-11-13T13:32:09Z
2022-11-13T11:33:14Z,42.805,6.029,13.3036,4.60093,2470.824,2022-11-13T13:35:12Z
2022-11-13T11:36:17Z,42.805,6.029,13.3031,4.60074,2470.8,2022-11-13T13:38:15Z
2022-11-13T11:39:20Z,42.805,6.029,13.3036,4.60081,2470.824,2022-11-13T13:41:18Z
2022-11-13T11:42:23Z,42.805,6.029,13.3029,4.60082,2470.787,2022-11-13T13:44:21Z
2022-11-13T11:45:27Z,42.805,6.029,13.3034,4.60075,2470.81,2022-11-13T13:47:25Z
2022-11-13T11:48:30Z,42.805,6.029,13.3034,4.60081,2470.787,2022-11-13T13:50:28Z
2022-11-13T11:51:33Z,42.805,6.029,13.3039,4.60075,2470.777,2022-11-13T13:53:31Z
2022-11-13T11:54:36Z,42.805,6.029,13.3025,4.60063,2470.824,2022-11-13T13:56:34Z
2022-11-13T11:57:39Z,42.805,6.029,13.3019,4.60068,2470.81,2022-11-13T13:59:37Z
2022-11-13T12:00:42Z,42.805,6.029,13.3019,4.60078,2470.787,2022-11-13T14:02:40Z
2022-11-13T12:03:45Z,42.805,6.029,13.3031,4.60074,2470.824,2022-11-13T14:05:43Z
2022-11-13T12:06:48Z,42.805,6.029,13.3020,4.60087,2470.81,2022-11-13T14:08:46Z
2022-11-13T12:09:51Z,42.805,6.029,13.3023,4.60074,2470.824,2022-11-13T14:11:49Z
2022-11-13T12:12:54Z,42.805,6.029,13.3021,4.60075,2470.787,2022-11-13T14:14:52Z
2022-11-13T12:15:57Z,42.805,6.029,13.3024,4.60079,2470.787,2022-11-13T14:17:55Z
2022-11-13T12:19:00Z,42.805,6.029,13.3019,4.60066,2470.824,2022-11-13T14:20:58Z
2022-11-13T12:22:04Z,42.805,6.029,13.3024,4.60074,2470.787,2022-11-13T14:24:02Z
2022-11-13T12:25:07Z,42.805,6.029,13.3024,4.60072,2470.824,2022-11-13T14:27:05Z
2022-11-13T12:28:10Z,42.805,6.029,13.3019,4.60069,2470.8,2022-11-13T14:30:08Z
2022-11-13T12:31:13Z,42.805,6.029,13.3026,4.60069,2470.8,2022-11-13T14:33:11Z
2022-11-13T12:34:16Z,42.805,6.029,13.3033,4.60077,2470.787,2022-11-13T14:36:14Z
2022-11-13T12:37:19Z,42.805,6.029,13.3030,4.60076,2470.763,2022-11-13T14:39:17Z
2022-11-13T12:40:22Z,42.805,6.029,13.3038,4.60064,2470.787,2022-11-13T14:42:20Z
2022-11-13T12:43:25Z,42.805,6.029,13.3019,4.60082,2470.787,2022-11-13T14:45:23Z
2022-11-13T12:46:28Z,42.805,6.029,13.3026,4.60076,2470.763,2022-11-13T14:48:26Z
2022-11-13T12:49:31Z,42.805,6.029,13.3017,4.60072,2470.777,2022-11-13T14:51:29Z
2022-11-13T12:52:34Z,42.805,6.029,13.3017,4.60074,2470.763,2022-11-13T14:54:32Z
2022-11-13T12:55:37Z,42.805,6.029,13.3028,4.60077,2470.763,2022-11-13T14:57:35Z
2022-11-13T12:58:41Z,42.805,6.029,13.3026,4.60063,2470.763,2022-11-13T15:00:39Z
2022-11-13T13:01:44Z,42.805,6.029,13.3023,4.60067,2470.763,2022-11-13T15:03:42Z
2022-11-13T13:04:47Z,42.805,6.029,13.3024,4.60073,2470.777,2022-11-13T15:06:45Z
2022-11-13T13:07:50Z,42.805,6.029,13.3021,4.60081,2470.777,2022-11-13T15:09:48Z
2022-11-13T13:10:53Z,42.805,6.029,13.3019,4.60069,2470.763,2022-11-13T15:12:51Z
2022-11-13T13:13:56Z,42.805,6.029,13.3025,4.60071,2470.763,2022-11-13T15:15:54Z
2022-11-13T13:16:59Z,42.805,6.029,13.3025,4.60078,2470.787,2022-11-13T15:18:57Z
2022-11-13T13:20:02Z,42.805,6.029,13.3040,4.60069,2470.763,2022-11-13T15:22:00Z
2022-11-13T13:23:05Z,42.805,6.029,13.3034,4.60086,2470.763,2022-11-13T15:25:03Z
2022-11-13T13:26:08Z,42.805,6.029,13.3034,4.60067,2470.777,2022-11-13T15:28:06Z
2022-11-13T13:29:11Z,42.805,6.029,13.3021,4.60072,2470.763,2022-11-13T15:31:09Z
2022-11-13T13:32:14Z,42.805,6.029,13.3023,4.60079,2470.754,2022-11-13T15:34:12Z
2022-11-13T13:35:18Z,42.805,6.029,13.3021,4.60074,2470.754,2022-11-13T15:37:16Z
2022-11-13T13:38:21Z,42.805,6.029,13.3034,4.60075,2470.763,2022-11-13T15:40:19Z
2022-11-13T13:41:24Z,42.805,6.029,13.3030,4.60082,2470.754,2022-11-13T15:43:22Z
2022-11-13T13:44:27Z,42.805,6.029,13.3026,4.60096,2470.777,2022-11-13T15:46:25Z
2022-11-13T13:47:30Z,42.805,6.029,13.3034,4.60083,2470.8,2022-11-13T15:49:28Z
2022-11-13T13:50:33Z,42.805,6.029,13.3026,4.60077,2470.777,2022-11-13T15:52:31Z
2022-11-13T13:53:36Z,42.805,6.029,13.3026,4.60074,2470.754,2022-11-13T15:55:34Z
2022-11-13T13:56:39Z,42.805,6.029,13.3031,4.60076,2470.73,2022-11-13T15:58:37Z
2022-11-13T13:59:42Z,42.805,6.029,13.3024,4.60094,2470.74,2022-11-13T16:01:40Z
2022-11-13T14:02:45Z,42.805,6.029,13.3024,4.60094,2470.777,2022-11-13T16:04:43Z
2022-11-13T14:05:48Z,42.805,6.029,13.3034,4.60084,2470.787,2022-11-13T16:07:46Z
2022-11-13T14:08:51Z,42.805,6.029,13.3033,4.60086,2470.777,2022-11-13T16:10:49Z
2022-11-13T14:11:54Z,42.805,6.029,13.3030,4.60079,2470.74,2022-11-13T16:13:52Z
2022-11-13T14:14:58Z,42.805,6.029,13.3034,4.60090,2470.754,2022-11-13T16:16:56Z
2022-11-13T14:18:01Z,42.805,6.029,13.3042,4.60086,2470.754,2022-11-13T16:19:59Z
2022-11-13T14:21:04Z,42.805,6.029,13.3031,4.60088,2470.717,2022-11-13T16:23:02Z
2022-11-13T14:24:07Z,42.805,6.029,13.3038,4.60081,2470.754,2022-11-13T16:26:05Z
2022-11-13T14:27:10Z,42.805,6.029,13.3024,4.60102,2470.717,2022-11-13T16:29:08Z
2022-11-13T14:30:13Z,42.805,6.029,13.3040,4.60079,2470.74,2022-11-13T16:32:11Z
2022-11-13T14:33:16Z,42.805,6.029,13.3034,4.60078,2470.73,2022-11-13T16:35:14Z
2022-11-13T14:36:19Z,42.805,6.029,13.3037,4.60104,2470.74,2022-11-13T16:38:17Z
2022-11-13T14:39:22Z,42.805,6.029,13.3031,4.60081,2470.73,2022-11-13T16:41:20Z
2022-11-13T14:42:25Z,42.805,6.029,13.3035,4.60099,2470.763,2022-11-13T16:44:23Z
2022-11-13T14:45:28Z,42.805,6.029,13.3041,4.60071,2470.74,2022-11-13T16:47:26Z
2022-11-13T14:48:31Z,42.805,6.029,13.3033,4.60069,2470.717,2022-11-13T16:50:30Z
2022-11-13T14:51:35Z,42.805,6.029,13.3028,4.60065,2470.717,2022-11-13T16:53:33Z
2022-11-13T14:54:38Z,42.805,6.029,13.3027,4.60062,2470.754,2022-11-13T16:56:36Z
2022-11-13T14:57:41Z,42.805,6.029,13.3029,4.60079,2470.763,2022-11-13T16:59:39Z
2022-11-13T15:00:44Z,42.805,6.029,13.3033,4.60074,2470.763,2022-11-13T17:02:42Z